Location: Melbourne
(37.8170°S, 144.9670°E)
Time: 01:09:36
(UTC+10:00)

ADEOS Rocket - Visible Passes

Search period start: 19 April 2015 00:00
Search period end: 29 April 2015 00:00
Orbit: 859 x 1308 km, 98.7° (Epoch: 16 April)

Date Brightness Start Highest point End Pass type
(mag) Time Alt. Az. Time Alt. Az. Time Alt. Az.
19 Apr 5.8 05:51:09 10° E 05:54:13 15° ESE 05:57:47 10° SSE visible
19 Apr 4.7 18:47:50 10° SE 18:52:49 19° E 18:58:11 10° NE visible
19 Apr 3.5 20:31:19 10° S 20:39:08 82° WSW 20:46:54 10° NNW visible
19 Apr 5.7 22:18:55 10° SSW 22:23:38 17° WSW 22:28:00 10° W visible
20 Apr 3.7 19:42:44 10° SSE 19:50:13 49° E 19:57:40 10° N visible
20 Apr 4.8 21:28:32 10° S 21:35:28 35° WSW 21:42:14 10° NW visible
21 Apr 5.7 05:58:02 10° E 06:01:50 17° ESE 06:06:10 10° SSE visible
21 Apr 4.5 18:55:12 10° SE 19:00:49 22° E 19:06:41 10° NE visible
21 Apr 3.7 20:39:10 10° S 20:46:58 72° WSW 20:54:39 10° NNW visible
21 Apr 5.9 22:27:15 10° SSW 22:31:19 15° WSW 22:34:57 10° W visible
22 Apr 3.6 19:50:28 10° SSE 19:58:08 56° E 20:05:40 10° N visible
22 Apr 5.0 21:36:32 10° S 21:43:12 31° WSW 21:49:39 10° WNW visible
23 Apr 5.6 06:05:04 10° ENE 06:09:27 21° ESE 06:14:25 10° SSE visible
23 Apr 4.4 19:02:41 10° SE 19:08:48 26° E 19:15:04 10° NE visible
23 Apr 3.9 20:47:03 10° S 20:54:47 64° WSW 21:02:20 10° NNW visible
23 Apr 6.0 22:35:46 10° SSW 22:38:58 13° SW 22:41:40 10° WSW visible
24 Apr 3.5 19:58:13 10° SSE 20:06:01 64° E 20:13:36 10° N visible
24 Apr 5.2 21:44:35 10° S 21:50:57 27° WSW 21:57:02 10° WNW visible
25 Apr 5.5 06:12:12 10° ENE 06:17:05 24° ESE 06:22:35 10° S visible
25 Apr 4.2 19:10:14 10° SE 19:16:47 30° E 19:23:20 10° NNE visible
25 Apr 4.1 20:54:56 10° S 21:02:36 56° WSW 21:09:58 10° NW visible
25 Apr 6.1 22:44:51 10° SW 22:46:37 11° SW 22:47:48 10° WSW visible
26 Apr 6.1 05:28:15 10° ESE 05:29:06 10° SE 05:30:26 10° SE visible
26 Apr 5.0 18:24:43 10° ESE 18:27:14 12° E 18:29:52 10° ENE visible
26 Apr 3.4 20:06:01 10° SSE 20:14:19 72° NE 20:21:28 10° N visible
26 Apr 5.3 21:52:40 10° SSW 21:58:40 24° WSW 22:04:19 10° WNW visible
27 Apr 5.3 06:19:26 10° ENE 06:24:45 28° ESE 06:30:42 10° S visible
27 Apr 4.1 19:17:50 10° SSE 19:25:42 33° ENE 19:31:31 10° NNE visible
27 Apr 4.5 21:02:53 10° S 21:12:42 38° WNW 21:17:33 10° NW visible
28 Apr 5.9 05:34:10 10° ESE 05:36:41 13° SE 05:39:43 10° SSE visible
28 Apr 5.0 18:36:44 14° E 18:36:44 14° E 18:39:03 10° ENE visible
28 Apr 3.8 20:13:50 10° SSE 20:23:43 55° N 20:29:18 10° NNW visible
28 Apr 5.5 22:00:48 10° SSW 22:10:43 12° W 22:11:31 10° WNW visible
